Weather History for KPNT - September, 2012

Change the Weather History Date:

Monday, September 3, 2012

  Actual Average Record
Temperature  
Mean Temperature 81 °F -  
Max Temperature 91 °F - - ()
Min Temperature 71 °F - - ()
Cooling Degree Days 16    
Growing Degree Days 31 (Base 50)    
Moisture  
Dew Point 71 °F    
Average Humidity 77    
Maximum Humidity 100    
Minimum Humidity 49    
Precipitation  
Precipitation 0.00 in - - ()
Sea Level Pressure  
Sea Level Pressure 29.89 in    
Wind  
Wind Speed 6 mph (NE)    
Max Wind Speed 12 mph    
Max Gust Speed 10 mph    
Visibility 8 miles    
Events      
T = Trace of Precipitation, MM = Missing Value Source: NWS Daily Summary

Daily Weather History Graph

Daily Weather History Graph

Search for Another Location

Airport or City:

Trip Planner

Search our weather history database for the weather conditions in past years. The results will help you decide how hot, cold, wet, or windy it might be!

Date:

Astronomy

Sep. 03, 2012 Rise Set
Actual Time 6:23 AM CDT 7:22 PM CDT
Civil Twilight 5:55 AM CDT 7:50 PM CDT
Nautical Twilight 5:22 AM CDT 8:24 PM CDT
Astronomical Twilight 4:47 AM CDT 8:58 PM CDT
Moon 8:39 PM CDT (9/3) 9:33 AM CDT (9/3)
Length of Visible Light 13h 55m
Length of Day
12h 59m
Waning Gibbous, 90% of the Moon is Illuminated
Sep 3
Waning Gibbous
Sep 8
Last Quarter
Sep 15
New
Sep 22
First Quarter
Sep 29
Full

Hourly Weather History & Observations

Time (CDT) Temp. Heat Index Dew Point Humidity Pressure Visibility Wind Dir Wind Speed Gust Speed Precip Events Conditions
12:15 AM 75.2 °F - 71.6 °F 89% 29.88 in 7.0 mi NE 5.8 mph - N/A   Clear
12:35 AM 73.4 °F - 71.6 °F 94% 29.89 in 10.0 mi NE 4.6 mph - N/A   Clear
12:55 AM 73.4 °F - 71.6 °F 94% 29.90 in 7.0 mi NNE 4.6 mph - N/A   Clear
1:15 AM 73.4 °F - 71.6 °F 94% 29.90 in 7.0 mi NE 4.6 mph - N/A   Clear
1:35 AM 73.4 °F - 71.6 °F 94% 29.89 in 7.0 mi NNE 4.6 mph - N/A   Scattered Clouds
1:55 AM 73.4 °F - 71.6 °F 94% 29.89 in 5.0 mi NNE 3.5 mph - N/A   Scattered Clouds
2:15 AM 73.4 °F - 71.6 °F 94% 29.89 in 4.0 mi North 3.5 mph - N/A   Scattered Clouds
2:35 AM 73.4 °F - 71.6 °F 94% 29.89 in 4.0 mi North 4.6 mph - N/A   Scattered Clouds
2:55 AM 71.6 °F - 71.6 °F 100% 29.89 in 4.0 mi North 6.9 mph - N/A   Scattered Clouds
3:15 AM 73.4 °F - 71.6 °F 94% 29.88 in 4.0 mi NNE 5.8 mph - N/A   Clear
3:35 AM 73.4 °F - 71.6 °F 94% 29.88 in 5.0 mi NE 5.8 mph - N/A   Clear
3:55 AM 73.4 °F - 71.6 °F 94% 29.87 in 5.0 mi ENE 8.1 mph - N/A   Clear
4:15 AM 73.4 °F - 71.6 °F 94% 29.87 in 7.0 mi East 8.1 mph - N/A   Clear
4:35 AM 73.4 °F - 71.6 °F 94% 29.86 in 5.0 mi East 8.1 mph - N/A   Clear
4:55 AM 73.4 °F - 71.6 °F 94% 29.87 in 7.0 mi ENE 6.9 mph - N/A   Clear
5:15 AM 73.4 °F - 71.6 °F 94% 29.88 in 5.0 mi ENE 4.6 mph - N/A   Clear
5:35 AM 73.4 °F - 71.6 °F 94% 29.88 in 5.0 mi ENE 5.8 mph - N/A   Clear
5:55 AM 71.6 °F - 71.6 °F 100% 29.88 in 4.0 mi North 4.6 mph - N/A   Clear
6:15 AM 71.6 °F - 71.6 °F 100% 29.89 in 3.0 mi NNE 4.6 mph - N/A   Clear
6:35 AM 71.6 °F - 71.6 °F 100% 29.90 in 2.0 mi North 4.6 mph - N/A   Mostly Cloudy
6:55 AM 71.6 °F - 71.6 °F 100% 29.90 in 2.0 mi North 4.6 mph - N/A   Mostly Cloudy
7:15 AM 73.4 °F - 71.6 °F 94% 29.91 in 2.5 mi NNE 6.9 mph - N/A   Overcast
7:35 AM 73.4 °F - 71.6 °F 94% 29.92 in 2.5 mi NNE 8.1 mph - N/A   Overcast
7:55 AM 73.4 °F - 71.6 °F 94% 29.93 in 2.5 mi North 6.9 mph - N/A   Overcast
8:15 AM 73.4 °F - 71.6 °F 94% 29.92 in 2.5 mi North 6.9 mph - N/A   Mostly Cloudy
8:35 AM 73.4 °F - 71.6 °F 94% 29.91 in 4.0 mi NE 9.2 mph - N/A   Mostly Cloudy
8:55 AM 75.2 °F - 71.6 °F 89% 29.91 in 5.0 mi East 8.1 mph - N/A   Mostly Cloudy
9:15 AM 78.8 °F - 71.6 °F 78% 29.91 in 7.0 mi East 8.1 mph - N/A   Scattered Clouds
9:35 AM 78.8 °F - 71.6 °F 78% 29.92 in 7.0 mi ENE 4.6 mph - N/A   Scattered Clouds
9:55 AM 80.6 °F 84.6 °F 71.6 °F 74% 29.92 in 10.0 mi NE 5.8 mph - N/A   Clear
10:15 AM 80.6 °F 85.4 °F 73.4 °F 79% 29.92 in 10.0 mi North 5.8 mph - N/A   Scattered Clouds
10:35 AM 82.4 °F 87.2 °F 71.6 °F 70% 29.92 in 10.0 mi NNE 5.8 mph - N/A   Scattered Clouds
10:55 AM 84.2 °F 89.6 °F 71.6 °F 66% 29.92 in 10.0 mi NE 5.8 mph - N/A   Clear
11:15 AM 84.2 °F 89.6 °F 71.6 °F 66% 29.92 in 10.0 mi NE 11.5 mph - N/A   Clear
11:35 AM 86.0 °F 91.8 °F 71.6 °F 62% 29.91 in 10.0 mi NNE 6.9 mph - N/A   Clear
11:55 AM 87.8 °F 93.8 °F 71.6 °F 58% 29.91 in 10.0 mi NE 9.2 mph - N/A   Clear
12:15 PM 87.8 °F 93.8 °F 71.6 °F 58% 29.91 in 10.0 mi NNE 5.8 mph - N/A   Clear
12:35 PM 87.8 °F 93.8 °F 71.6 °F 58% 29.91 in 10.0 mi NE 9.2 mph - N/A   Clear
12:55 PM 87.8 °F 93.8 °F 71.6 °F 58% 29.90 in 10.0 mi NE 9.2 mph - N/A   Clear
1:15 PM 87.8 °F 93.8 °F 71.6 °F 58% 29.90 in 10.0 mi NNE 6.9 mph - N/A   Clear
1:35 PM 89.6 °F 96.2 °F 71.6 °F 55% 29.90 in 10.0 mi ENE 3.5 mph - N/A   Clear
1:55 PM 91.4 °F 98.4 °F 71.6 °F 52% 29.90 in 10.0 mi NE 8.1 mph - N/A   Clear
2:15 PM 91.4 °F 98.4 °F 71.6 °F 52% 29.89 in 10.0 mi ENE 9.2 mph - N/A   Scattered Clouds
2:35 PM 89.6 °F 94.7 °F 69.8 °F 52% 29.88 in 10.0 mi NE 5.8 mph - N/A   Scattered Clouds
2:55 PM 91.4 °F 98.4 °F 71.6 °F 52% 29.88 in 10.0 mi NE 10.4 mph - N/A   Scattered Clouds
3:15 PM 89.6 °F 96.2 °F 71.6 °F 55% 29.87 in 10.0 mi NE 8.1 mph - N/A   Scattered Clouds
3:35 PM 91.4 °F 98.4 °F 71.6 °F 52% 29.87 in 10.0 mi ENE 5.8 mph 10.4 mph N/A   Scattered Clouds
3:55 PM 91.4 °F 98.4 °F 71.6 °F 52% 29.87 in 10.0 mi North 8.1 mph - N/A   Clear
4:15 PM 89.6 °F 94.7 °F 69.8 °F 52% 29.88 in 10.0 mi NNE 6.9 mph - N/A   Scattered Clouds
4:35 PM 91.4 °F 96.8 °F 69.8 °F 49% 29.87 in 10.0 mi NE 8.1 mph - N/A   Clear
4:55 PM 91.4 °F 96.8 °F 69.8 °F 49% 29.87 in 10.0 mi North 6.9 mph - N/A   Scattered Clouds
5:15 PM 91.4 °F 96.8 °F 69.8 °F 49% 29.87 in 10.0 mi North 5.8 mph - N/A   Clear
5:35 PM 91.4 °F 96.8 °F 69.8 °F 49% 29.87 in 10.0 mi NE 6.9 mph - N/A   Clear
5:55 PM 89.6 °F 94.7 °F 69.8 °F 52% 29.87 in 10.0 mi North 5.8 mph - N/A   Clear
6:15 PM 89.6 °F 94.7 °F 69.8 °F 52% 29.87 in 10.0 mi NNE 3.5 mph - N/A   Clear
6:35 PM 89.6 °F 94.7 °F 69.8 °F 52% 29.87 in 10.0 mi NE 4.6 mph - N/A   Clear
6:55 PM 87.8 °F 92.6 °F 69.8 °F 55% 29.87 in 10.0 mi Calm Calm - N/A   Clear
7:15 PM 84.2 °F 89.6 °F 71.6 °F 66% 29.87 in 10.0 mi Calm Calm - N/A   Clear
7:35 PM 80.6 °F 84.6 °F 71.6 °F 74% 29.88 in 10.0 mi Calm Calm - N/A   Clear
7:55 PM 80.6 °F 84.6 °F 71.6 °F 74% 29.88 in 10.0 mi Calm Calm - N/A   Clear
8:15 PM 78.8 °F - 71.6 °F 78% 29.88 in 10.0 mi Calm Calm - N/A   Clear
8:35 PM 78.8 °F - 73.4 °F 83% 29.89 in 10.0 mi Calm Calm - N/A   Clear
8:55 PM 78.8 °F - 71.6 °F 78% 29.89 in 10.0 mi ENE 3.5 mph - N/A   Clear
9:15 PM 75.2 °F - 71.6 °F 89% 29.89 in 10.0 mi East 4.6 mph - N/A   Clear
9:35 PM 75.2 °F - 71.6 °F 89% 29.89 in 10.0 mi East 5.8 mph - N/A   Clear
9:55 PM 75.2 °F - 71.6 °F 89% 29.89 in 10.0 mi East 4.6 mph - N/A   Clear
10:15 PM 75.2 °F - 71.6 °F 89% 29.90 in 10.0 mi Calm Calm - N/A   Clear
10:35 PM 75.2 °F - 71.6 °F 89% 29.90 in 10.0 mi East 4.6 mph - N/A   Clear
10:55 PM 75.2 °F - 71.6 °F 89% 29.89 in 10.0 mi East 5.8 mph - N/A   Clear
11:15 PM 75.2 °F - 71.6 °F 89% 29.88 in 10.0 mi ESE 4.6 mph - N/A   Clear
11:35 PM 73.4 °F - 71.6 °F 94% 29.88 in 7.0 mi Calm Calm - N/A   Clear
11:55 PM 73.4 °F - 71.6 °F 94% 29.89 in 7.0 mi SE 3.5 mph - N/A   Clear